This demonstration page uses our WeatherBlox Daily Observations layout. Learn more.

Left ArrowRight Arrow

39.95238, -75.16362

Hourly Observations for April 10, 2017

Temp ( °F °C ) Dew Point ( °F °C ) Humidity (%) Winds ( mph kmh ) Pressure ( in mb ) Visibility ( mi km ) Precip ( " mm )
12:54 am 00:54 Mostly Cloudy 51 10.6 38 3.3 61 61 S 3 6 30.19 1023 10 16 0.00 0.00
1:54 am 01:54 Partly Cloudy 50 10 38 3.3 63 63 Calm 30.19 1022 10 16 0.00 0.00
2:54 am 02:54 Mostly Cloudy 49 9.4 39 3.9 69 69 SSE 6 9 30.18 1022 10 16 0.00 0.00
3:54 am 03:54 Mostly Clear 48 8.9 37 2.8 66 66 S 5 7 30.18 1022 10 16 0.00 0.00
4:54 am 04:54 Partly Cloudy 48 8.9 37 2.8 66 66 Calm 30.19 1022 10 16 0.00 0.00
5:54 am 05:54 Partly Cloudy 47 8.3 37 2.8 69 69 SSW 3 6 30.21 1023 10 16 0.00 0.00
6:54 am 06:54 Mostly Cloudy 46 7.8 37 2.8 71 71 Calm 30.22 1023 10 16 0.00 0.00
7:54 am 07:54 Partly Cloudy 50 10 40 4.4 68 68 S 6 9 30.22 1023 10 16 0.00 0.00
8:54 am 08:54 Partly Cloudy 55 12.8 42 5.6 62 62 SW 7 11 30.22 1024 10 16 0.00 0.00
9:54 am 09:54 Partly Cloudy 60 15.6 43 6.1 53 53 WSW 8 13 30.22 1023 10 16 0.00 0.00
10:54 am 10:54 Partly Cloudy 65 18.3 43 6.1 45 45 SSW 9 15 30.21 1023 10 16 0.00 0.00
11:54 am 11:54 Mostly Cloudy 69 20.6 44 6.7 41 41 SSW 10 17 30.20 1023 10 16 0.00 0.00
12:54 pm 12:54 Mostly Cloudy 74 23.3 42 5.6 32 32 SSW 14 22 30.16 1021 10 16 0.00 0.00
1:54 pm 13:54 Mostly Cloudy 78 25.6 41 5 27 27 WSW 21 33 30.14 1021 10 16 0.00 0.00
2:54 pm 14:54 Mostly Cloudy 79 26.1 40 4.4 25 25 SSW 17 28 30.11 1020 10 16 0.00 0.00
3:54 pm 15:54 Mostly Cloudy 80 26.7 41 5 25 25 SW 17 28 30.10 1019 10 16 0.00 0.00
4:54 pm 16:54 Mostly Cloudy 80 26.7 42 5.6 26 26 SSW 13 20 30.10 1019 10 16 0.00 0.00
5:54 pm 17:54 Mostly Cloudy 78 25.6 43 6.1 29 29 SSW 14 22 30.09 1019 10 16 0.00 0.00
6:54 pm 18:54 Mostly Cloudy 75 23.9 45 7.2 34 34 SSW 12 19 30.10 1019 10 16 0.00 0.00
7:54 pm 19:54 Mostly Cloudy 71 21.7 45 7.2 39 39 S 8 13 30.11 1020 10 16 0.00 0.00
8:54 pm 20:54 Mostly Cloudy 69 20.6 45 7.2 42 42 SSW 7 11 30.14 1021 10 16 0.00 0.00
9:54 pm 21:54 Mostly Cloudy 67 19.4 45 7.2 45 45 SSW 7 11 30.15 1021 10 16 0.00 0.00
10:54 pm 22:54 Mostly Cloudy 65 18.3 45 7.2 49 49 SSW 7 11 30.15 1021 10 16 0.00 0.00
11:54 pm 23:54 Mostly Cloudy 61 16.1 46 7.8 58 58 S 6 9 30.14 1021 10 16 0.00 0.00

Powered by Vaisala Xweather